LRI582 RPMZ-RPVP

Flight info

Callsign LRI582
Flight time 0h 51m
Altitude 38000
Route MASUN2D MASUN A583 MARAN W17 ZENNY ZENNY2W
Aircraft B772/H-SDE2E3FGHIJ5LORVWXY/LB1D1

Departure

Time 2026-04-14 17:07
Airport Zamboanga International Airport (RPMZ)

Arrival

Time 2026-04-14 17:58
Airport Puerto Princesa International Airport / PAF Antonio Bautista Air Base (RPVP)
Time Latitude Longitude Altitude Speed Heading
2026-04-14 16:13 6.92056 122.06077 64 ft 0 kts 154°
2026-04-14 16:47 6.92061 122.06074 64 ft 2 kts 154°
2026-04-14 16:47 6.92074 122.06068 64 ft 2 kts 154°
2026-04-14 16:48 6.92087 122.06062 64 ft 2 kts 154°
2026-04-14 16:48 6.92101 122.06055 64 ft 2 kts 154°
2026-04-14 16:48 6.92109 122.06051 64 ft 0 kts 154°
2026-04-14 16:56 6.92105 122.06054 64 ft 2 kts 140°
2026-04-14 16:56 6.92106 122.06090 65 ft 9 kts 70°
2026-04-14 16:56 6.92130 122.06180 64 ft 17 kts 81°
2026-04-14 16:56 6.92196 122.06264 62 ft 17 kts 50°
2026-04-14 16:57 6.92213 122.06403 60 ft 23 kts 90°
2026-04-14 16:57 6.92200 122.06586 59 ft 28 kts 95°
2026-04-14 16:57 6.92185 122.06789 62 ft 28 kts 92°
2026-04-14 16:57 6.92174 122.06973 66 ft 20 kts 97°
2026-04-14 16:58 6.92153 122.07089 67 ft 7 kts 90°
2026-04-14 16:58 6.92172 122.07083 67 ft 6 kts 274°
2026-04-14 16:58 6.92171 122.07053 67 ft 0 kts 271°
2026-04-14 17:06 6.92174 122.06969 66 ft 40 kts 272°
2026-04-14 17:06 6.92210 122.06425 60 ft 114 kts 274°
2026-04-14 17:06 6.92283 122.05404 106 ft 167 kts 275°
2026-04-14 17:07 6.92348 122.04206 570 ft 179 kts 272°
2026-04-14 17:07 6.92367 122.02951 1345 ft 180 kts 277°
2026-04-14 17:07 6.92492 122.01759 2090 ft 174 kts 277°
2026-04-14 17:07 6.92576 122.00509 2516 ft 183 kts 275°
2026-04-14 17:08 6.92654 121.99244 3071 ft 182 kts 276°
2026-04-14 17:08 6.92956 121.98007 3420 ft 190 kts 301°
2026-04-14 17:08 6.93834 121.96948 3653 ft 206 kts 328°
2026-04-14 17:08 6.95199 121.96371 4000 ft 218 kts 354°
2026-04-14 17:09 6.96722 121.96381 4512 ft 225 kts
2026-04-14 17:09 6.98366 121.96480 4800 ft 246 kts
2026-04-14 17:09 7.00139 121.96607 5333 ft 256 kts
2026-04-14 17:09 7.01916 121.96722 5941 ft 262 kts
2026-04-14 17:10 7.03791 121.96838 6385 ft 274 kts
2026-04-14 17:10 7.05680 121.96963 7099 ft 274 kts
2026-04-14 17:10 7.07597 121.97086 7839 ft 274 kts
2026-04-14 17:10 7.09522 121.97125 8432 ft 279 kts 353°
2026-04-14 17:11 7.11361 121.96483 8945 ft 287 kts 334°
2026-04-14 17:11 7.13118 121.95493 9569 ft 290 kts 333°
2026-04-14 17:11 7.14877 121.94547 10309 ft 288 kts 335°
2026-04-14 17:11 7.16703 121.93633 10725 ft 300 kts 336°
2026-04-14 17:12 7.18631 121.92680 11036 ft 316 kts 336°
2026-04-14 17:12 7.20653 121.91686 11329 ft 332 kts 336°
2026-04-14 17:12 7.22785 121.90638 11625 ft 348 kts 336°
2026-04-14 17:12 7.25014 121.89542 11929 ft 362 kts 336°
2026-04-14 17:13 7.27330 121.88405 12221 ft 376 kts 336°
2026-04-14 17:13 7.29735 121.87223 12633 ft 386 kts 336°
2026-04-14 17:13 7.32160 121.86030 13210 ft 391 kts 336°
2026-04-14 17:13 7.34609 121.84825 13863 ft 394 kts 336°
2026-04-14 17:14 7.37069 121.83615 14503 ft 399 kts 336°
2026-04-14 17:14 7.39574 121.82383 15215 ft 403 kts 336°
2026-04-14 17:14 7.42121 121.81130 15941 ft 407 kts 336°
2026-04-14 17:14 7.44675 121.79873 16645 ft 412 kts 336°
2026-04-14 17:15 7.47291 121.78586 17312 ft 417 kts 336°
2026-04-14 17:15 7.49925 121.77289 17993 ft 422 kts 336°
2026-04-14 17:15 7.52563 121.75990 18699 ft 425 kts 336°
2026-04-14 17:15 7.55214 121.74686 19397 ft 428 kts 336°
2026-04-14 17:16 7.57915 121.73356 20049 ft 432 kts 335°
2026-04-14 17:16 7.60622 121.72022 20659 ft 437 kts 335°
2026-04-14 17:16 7.63393 121.70658 21281 ft 441 kts 335°
2026-04-14 17:16 7.66144 121.69302 21911 ft 445 kts 335°
2026-04-14 17:17 7.68947 121.67921 22542 ft 448 kts 335°
2026-04-14 17:17 7.71785 121.66523 23154 ft 452 kts 335°
2026-04-14 17:17 7.74593 121.65139 23717 ft 457 kts 335°
2026-04-14 17:17 7.77478 121.63717 24287 ft 461 kts 335°
2026-04-14 17:18 7.80380 121.62286 24858 ft 465 kts 335°
2026-04-14 17:18 7.83305 121.60844 25419 ft 469 kts 335°
2026-04-14 17:18 7.86263 121.59386 25950 ft 473 kts 335°
2026-04-14 17:18 7.89212 121.57931 26461 ft 478 kts 335°
2026-04-14 17:19 7.92220 121.56448 26960 ft 482 kts 335°
2026-04-14 17:19 7.95268 121.54944 27464 ft 487 kts 335°
2026-04-14 17:19 7.98325 121.53435 27960 ft 491 kts 335°
2026-04-14 17:19 8.01413 121.51911 28465 ft 494 kts 335°
2026-04-14 17:20 8.04481 121.50397 28966 ft 497 kts 335°
2026-04-14 17:20 8.07620 121.48847 29422 ft 501 kts 335°
2026-04-14 17:20 8.10753 121.47300 29871 ft 505 kts 335°
2026-04-14 17:20 8.13940 121.45726 30475 ft 505 kts 335°
2026-04-14 17:21 8.17069 121.44179 31179 ft 503 kts 335°
2026-04-14 17:21 8.20229 121.42619 31860 ft 500 kts 335°
2026-04-14 17:21 8.23318 121.41092 32452 ft 500 kts 334°
2026-04-14 17:21 8.26475 121.39532 33063 ft 500 kts 334°
2026-04-14 17:22 8.29582 121.37995 33728 ft 499 kts 334°
2026-04-14 17:22 8.32696 121.36456 34484 ft 497 kts 334°
2026-04-14 17:22 8.35783 121.34929 35281 ft 493 kts 334°
2026-04-14 17:22 8.38846 121.33415 35998 ft 491 kts 334°
2026-04-14 17:23 8.41931 121.31888 36561 ft 490 kts 334°
2026-04-14 17:23 8.45012 121.30363 37029 ft 491 kts 334°
2026-04-14 17:23 8.48055 121.28857 37429 ft 492 kts 334°
2026-04-14 17:23 8.51134 121.27334 37828 ft 492 kts 334°
2026-04-14 17:24 8.57380 121.24242 37854 ft 503 kts 334°
2026-04-14 17:24 8.63712 121.21106 37850 ft 507 kts 334°
2026-04-14 17:25 8.70017 121.17982 37848 ft 504 kts 334°
2026-04-14 17:25 8.76363 121.14837 37847 ft 505 kts 334°
2026-04-14 17:26 8.82683 121.11704 37848 ft 505 kts 334°
2026-04-14 17:26 8.88989 121.08575 37847 ft 505 kts 334°
2026-04-14 17:27 8.95283 121.05452 37847 ft 505 kts 334°
2026-04-14 17:27 9.01638 121.02298 37838 ft 505 kts 334°
2026-04-14 17:28 9.07940 120.99168 37841 ft 506 kts 334°
2026-04-14 17:28 9.14268 120.96024 37848 ft 505 kts 334°
2026-04-14 17:29 9.20596 120.92879 37849 ft 504 kts 334°
2026-04-14 17:29 9.26898 120.89747 37847 ft 504 kts 334°
2026-04-14 17:30 9.33199 120.86613 37847 ft 504 kts 334°
2026-04-14 17:30 9.39463 120.83495 37849 ft 504 kts 334°
2026-04-14 17:31 9.45769 120.80357 37848 ft 504 kts 334°
2026-04-14 17:31 9.52082 120.77213 37848 ft 503 kts 334°
2026-04-14 17:32 9.58362 120.74084 37848 ft 503 kts 334°
2026-04-14 17:32 9.64649 120.70951 37848 ft 502 kts 334°
2026-04-14 17:33 9.70948 120.67810 37848 ft 501 kts 334°
2026-04-14 17:34 9.80330 120.63129 37849 ft 501 kts 334°
2026-04-14 17:34 9.86585 120.60006 37850 ft 501 kts 334°
2026-04-14 17:35 9.92844 120.56879 37852 ft 501 kts 334°
2026-04-14 17:35 9.99067 120.53770 37533 ft 491 kts 334°
2026-04-14 17:35 10.02144 120.52232 36483 ft 493 kts 334°
2026-04-14 17:36 10.05238 120.50684 35420 ft 495 kts 334°
2026-04-14 17:36 10.08250 120.49007 34465 ft 495 kts 327°
2026-04-14 17:36 10.11002 120.46894 33526 ft 495 kts 319°
2026-04-14 17:36 10.13402 120.44398 32588 ft 495 kts 310°
2026-04-14 17:37 10.15392 120.41596 31736 ft 495 kts 301°
2026-04-14 17:37 10.16958 120.38521 30819 ft 497 kts 293°
2026-04-14 17:37 10.18046 120.35216 30135 ft 493 kts 284°
2026-04-14 17:37 10.18618 120.31805 29616 ft 486 kts 275°
2026-04-14 17:38 10.18691 120.28420 29059 ft 481 kts 267°
2026-04-14 17:38 10.18276 120.25036 28470 ft 488 kts 258°
2026-04-14 17:38 10.17415 120.21665 27861 ft 492 kts 253°
2026-04-14 17:38 10.16452 120.18379 27247 ft 490 kts 253°
2026-04-14 17:39 10.15477 120.15089 26631 ft 485 kts 253°
2026-04-14 17:39 10.14507 120.11826 26020 ft 481 kts 253°
2026-04-14 17:39 10.13550 120.08610 25398 ft 477 kts 253°
2026-04-14 17:39 10.12588 120.05379 24770 ft 472 kts 253°
2026-04-14 17:40 10.11642 120.02206 24147 ft 468 kts 253°
2026-04-14 17:40 10.10706 119.99071 23525 ft 464 kts 253°
2026-04-14 17:40 10.09775 119.95955 22908 ft 460 kts 253°
2026-04-14 17:40 10.08852 119.92863 22283 ft 457 kts 253°
2026-04-14 17:41 10.07941 119.89816 21669 ft 453 kts 253°
2026-04-14 17:41 10.07035 119.86787 21050 ft 450 kts 253°
2026-04-14 17:41 10.06129 119.83759 20419 ft 447 kts 253°
2026-04-14 17:41 10.05229 119.80751 19794 ft 444 kts 253°
2026-04-14 17:42 10.04340 119.77783 19173 ft 441 kts 253°
2026-04-14 17:42 10.03455 119.74830 18537 ft 438 kts 253°
2026-04-14 17:42 10.02578 119.71904 17908 ft 436 kts 253°
2026-04-14 17:42 10.01699 119.68971 17265 ft 433 kts 253°
2026-04-14 17:43 10.00831 119.66077 16649 ft 431 kts 253°
2026-04-14 17:43 9.99965 119.63191 16014 ft 428 kts 253°
2026-04-14 17:43 9.99095 119.60289 15358 ft 426 kts 253°
2026-04-14 17:43 9.98250 119.57476 14636 ft 413 kts 253°
2026-04-14 17:44 9.97416 119.54701 14162 ft 406 kts 253°
2026-04-14 17:44 9.96603 119.51994 13520 ft 406 kts 254°
2026-04-14 17:44 9.95779 119.49251 12866 ft 405 kts 254°
2026-04-14 17:44 9.94959 119.46524 12240 ft 404 kts 254°
2026-04-14 17:45 9.94148 119.43824 11624 ft 402 kts 253°
2026-04-14 17:45 9.93337 119.41129 11007 ft 400 kts 253°
2026-04-14 17:45 9.92535 119.38463 10528 ft 392 kts 253°
2026-04-14 17:45 9.91749 119.35855 10248 ft 381 kts 253°
2026-04-14 17:46 9.90985 119.33318 9949 ft 371 kts 253°
2026-04-14 17:46 9.90246 119.30868 9581 ft 364 kts 253°
2026-04-14 17:46 9.89512 119.28434 9195 ft 359 kts 253°
2026-04-14 17:46 9.88785 119.26023 8762 ft 352 kts 253°
2026-04-14 17:47 9.88091 119.23724 8376 ft 335 kts 253°
2026-04-14 17:47 9.87429 119.21532 8066 ft 318 kts 253°
2026-04-14 17:47 9.86797 119.19437 7798 ft 302 kts 254°
2026-04-14 17:47 9.86193 119.17436 7622 ft 289 kts 254°
2026-04-14 17:48 9.85613 119.15511 7416 ft 285 kts 254°
2026-04-14 17:48 9.85039 119.13605 7122 ft 284 kts 254°
2026-04-14 17:48 9.84462 119.11696 6702 ft 282 kts 254°
2026-04-14 17:48 9.83845 119.09833 6252 ft 282 kts 244°
2026-04-14 17:49 9.82752 119.08174 5937 ft 282 kts 231°
2026-04-14 17:49 9.81497 119.06658 5648 ft 282 kts 229°
2026-04-14 17:49 9.80208 119.05148 5365 ft 281 kts 229°
2026-04-14 17:49 9.78930 119.03648 5074 ft 281 kts 229°
2026-04-14 17:50 9.77662 119.02155 4780 ft 281 kts 229°
2026-04-14 17:50 9.76335 119.00706 4495 ft 280 kts 226°
2026-04-14 17:50 9.75005 118.99258 4216 ft 280 kts 227°
2026-04-14 17:50 9.73850 118.97690 3903 ft 279 kts 246°
2026-04-14 17:51 9.73419 118.95782 3592 ft 276 kts 269°
2026-04-14 17:51 9.73422 118.93860 3216 ft 278 kts 274°
2026-04-14 17:51 9.73505 118.91881 2834 ft 282 kts 274°
2026-04-14 17:51 9.73595 118.89913 2412 ft 272 kts 274°
2026-04-14 17:52 9.73675 118.88084 2092 ft 254 kts 274°
2026-04-14 17:52 9.73750 118.86379 1805 ft 228 kts 274°
2026-04-14 17:52 9.73817 118.84870 1549 ft 206 kts 274°
2026-04-14 17:52 9.73879 118.83456 1260 ft 197 kts 274°
2026-04-14 17:53 9.73941 118.82066 996 ft 196 kts 274°
2026-04-14 17:53 9.74000 118.80705 742 ft 193 kts 275°
2026-04-14 17:53 9.74060 118.79346 824 ft 196 kts 275°
2026-04-14 17:53 9.74120 118.77979 781 ft 195 kts 275°
2026-04-14 17:54 9.74444 118.76676 843 ft 192 kts 304°
2026-04-14 17:54 9.75343 118.75680 850 ft 189 kts 318°
2026-04-14 17:54 9.76282 118.74745 853 ft 185 kts 318°
2026-04-14 17:54 9.77213 118.73812 845 ft 186 kts 318°
2026-04-14 17:55 9.78087 118.72842 841 ft 188 kts 303°
2026-04-14 17:55 9.78365 118.71551 846 ft 191 kts 274°
2026-04-14 17:55 9.78379 118.70190 838 ft 193 kts 271°
2026-04-14 17:55 9.78000 118.68899 838 ft 195 kts 236°
2026-04-14 17:56 9.76915 118.68125 828 ft 194 kts 195°
2026-04-14 17:56 9.75598 118.68193 824 ft 192 kts 156°
2026-04-14 17:56 9.74656 118.69041 826 ft 173 kts 115°
2026-04-14 17:56 9.74436 118.70129 831 ft 150 kts 93°
2026-04-14 17:57 9.74341 118.71141 839 ft 140 kts 93°
2026-04-14 17:57 9.74241 118.72120 821 ft 138 kts 90°
2026-04-14 17:57 9.74273 118.73090 611 ft 136 kts 85°
2026-04-14 17:57 9.74285 118.74032 302 ft 134 kts 89°
2026-04-14 17:58 9.74251 118.74951 78 ft 124 kts 90°
2026-04-14 17:58 9.74236 118.75542 68 ft 41 kts 92°
2026-04-14 17:58 9.74220 118.75741 66 ft 13 kts 120°
2026-04-14 17:58 9.74150 118.75736 66 ft 10 kts 237°
2026-04-14 17:59 9.74136 118.75653 66 ft 13 kts 271°
2026-04-14 17:59 9.74169 118.75575 67 ft 13 kts 313°
2026-04-14 17:59 9.74221 118.75495 68 ft 14 kts 282°
2026-04-14 17:59 9.74233 118.75394 70 ft 15 kts 274°
2026-04-14 18:00 9.74248 118.75285 72 ft 15 kts 304°
2026-04-14 18:00 9.74350 118.75256 74 ft 13 kts 356°
2026-04-14 18:00 9.74412 118.75093 78 ft 14 kts 272°
2026-04-14 18:01 9.74440 118.75008 79 ft 13 kts 324°
2026-04-14 18:01 9.74488 118.74995 80 ft 4 kts 356°
2026-04-14 18:01 9.74501 118.74994 81 ft 0 kts 358°